Location: Chappes
(45.8683°N, 3.2224°E)
Time: 00:05:41
(UTC+00:00)

Daily predictions for brighter satellites

Satellite Brightness Start Highest point End
(mag) Time Altitude Azimuth Time Altitude Azimuth Time Altitude Azimuth
Resurs 1-4 Rocket 4.4 02:01:59 10° N 02:03:13 17° N 02:03:13 17° N
Cosmos 1833 Rocket 4.1 02:13:01 34° NE 02:13:01 34° NE 02:16:10 10° NNE
CZ-2D R/B 4.3 02:17:33 10° N 02:18:59 18° N 02:18:59 18° N
CENTAUR R/B 3.8 02:27:13 29° ESE 02:27:41 29° ESE 02:33:19 10° NE
Lacrosse 4 Rocket 4.2 02:30:46 13° N 02:32:45 17° NE 02:35:38 10° E
Cosmos 2082 Rocket 3.0 02:38:49 45° E 02:38:49 45° E 02:43:45 10° NE
ADEOS II 3.8 02:40:22 10° N 02:42:28 23° N 02:42:28 23° N
CZ-2C R/B 3.6 02:46:13 10° NNE 02:50:47 37° E 02:51:09 37° ESE
COSMOS 2406 3.2 03:01:53 75° NNE 03:01:53 75° NNE 03:07:05 10° NNE
BREEZE-M DEB (TANK) 4.3 03:04:01 24° E 03:04:01 24° E 03:06:16 10° ESE
NOSS 3-2 (A) 3.8 03:01:33 48° SE 03:02:11 50° ESE 03:08:08 10° NE
Cosmos 1605 Rocket 4.3 03:06:06 51° NNW 03:06:06 51° NNW 03:10:58 10° N
ATLAS CENTAUR R/B 2.8 03:08:06 39° N 03:08:06 39° N 03:11:26 10° NNE
Cosmos 2322 Rocket 4.3 03:09:11 10° N 03:13:51 25° NE 03:18:29 10° ESE
Meteor 1-11 Rocket 3.7 03:11:48 10° NNW 03:17:47 76° W 03:18:13 72° SW
Cosmos 1980 Rocket 3.3 03:23:06 29° S 03:23:06 29° S 03:25:47 10° SSE
BREEZE M DEB (TANK) 4.5 03:16:14 34° SW 03:22:24 66° SSE 03:27:23 10° ENE
USA 308 4.2 03:25:30 30° N 03:25:30 30° N 03:28:39 10° NE
Cosmos 44 Rocket 3.5 03:26:24 56° NNW 03:26:24 56° NNW 03:30:27 10° NNE
Cosmos 1850 Rocket 4.3 03:20:47 10° NNW 03:26:08 66° ENE 03:31:26 10° SSE
PAYLOAD A 3.9 03:22:16 10° NNE 03:27:09 79° ESE 03:28:14 55° S
SL-19 R/B 4.3 03:21:59 10° NNE 03:28:11 89° W 03:30:17 43° SSW
Cosmos 1802 Rocket 4.4 03:23:21 10° S 03:29:36 62° E 03:35:47 10° NNE
Cosmos 1378 4.3 03:30:13 37° ESE 03:30:49 40° E 03:34:15 10° NNE
CBERS-1 3.9 03:28:40 10° N 03:33:46 66° WNW 03:33:56 65° W
Cosmos 2056 Rocket 4.3 03:35:20 34° NW 03:35:20 34° NW 03:39:12 10° N
Meteor 1-19 Rocket 4.5 03:32:43 15° S 03:37:07 64° E 03:42:29 10° NNE
Cosmos 2173 Rocket 3.9 03:33:20 24° S 03:37:12 89° E 03:43:19 10° N
Cosmos 1515 Rocket 3.5 03:37:57 71° S 03:38:25 90° NE 03:42:55 10° N
GP-B 4.2 03:35:24 10° SSE 03:39:36 44° E 03:43:49 10° N
Cosmos 1461 2.7 03:42:22 89° NNE 03:42:22 89° NNE 03:46:33 10° NE
IRS-1D 4.4 03:39:01 10° N 03:43:03 33° NW 03:43:03 33° NW
ALOS 2.4 03:39:17 10° N 03:43:37 54° WNW 03:43:37 54° WNW
Cosmos 2278 3.5 03:38:45 10° NNW 03:44:27 83° WSW 03:50:05 10° SSE
SL-16 R/B 3.0 03:39:20 10° NNW 03:44:54 52° ENE 03:50:26 10° SE
USA 305 4.2 03:44:58 26° NNW 03:45:27 27° N 03:49:00 10° NE
FENGYUN 3A 3.9 03:45:55 10° N 03:51:01 44° WNW 03:51:35 43° W
Dummy Sat-01 4.5 03:51:35 78° SSW 03:51:48 85° W 03:55:35 10° N
METEOR-M 4.0 03:47:57 10° NNE 03:53:20 82° WNW 03:56:56 22° SSW
CZ-3 R/B 4.3 03:39:43 22° SW 03:54:45 37° S 04:03:53 10° ESE
Cosmos 1833 Rocket 4.0 03:54:43 24° NW 03:55:00 24° NW 03:59:30 10° N
IRS-P3 4.1 03:50:39 10° NNE 03:56:01 89° ESE 04:00:46 13° SSW
Cosmos 1741 Rocket 3.8 03:52:37 10° NNW 03:57:50 73° WSW 04:03:01 10° SSE
Cosmos 2228 Rocket 4.2 03:57:41 10° SSE 04:01:57 46° E 04:06:12 10° NNE
Cosmos 1331 Rocket 3.9 04:00:12 18° SSW 04:04:02 85° ESE 04:09:15 10° NNE
YAOGAN 6 2.7 04:02:53 10° NNE 04:06:31 72° ESE 04:09:37 13° S
Lacrosse 5 rocket 4.1 04:08:15 10° SSE 04:11:21 18° ESE 04:14:26 10° E
Cosmos 1484 Rocket 2.7 04:07:42 10° N 04:11:43 82° WNW 04:14:53 15° SSW
Lacrosse 4 Rocket 1.4 04:07:30 10° NNW 04:11:54 80° WSW 04:16:20 10° SSE
Meteor 1-27 Rocket 4.3 04:10:33 30° WSW 04:12:38 39° WNW 04:18:10 10° N
ARIANE 5 R/B 2.4 04:08:40 10° N 04:13:39 66° WNW 04:18:03 13° SSW
CZ-2C R/B 2.6 04:08:41 10° S 04:13:52 60° W 04:19:11 10° NNW
Helios 1B rocket 2.8 04:10:25 10° N 04:14:17 43° WNW 04:15:11 37° WSW
Meteor 1-29 3.2 04:13:58 10° NNE 04:17:16 64° ESE 04:20:32 10° S
CENTAUR R/B 2.7 04:14:25 27° WSW 04:17:46 60° NW 04:24:53 10° NE
Cosmos 2100 Rocket 4.3 04:15:24 20° SW 04:19:19 43° WNW 04:25:11 10° N
CZ-2C R/B 3.5 04:13:55 10° NNE 04:19:38 69° ESE 04:25:02 10° S
Cosmos 1110 Rocket 3.9 04:16:35 18° SW 04:20:23 65° WNW 04:25:33 10° NNE
CZ-4C R/B 3.9 04:16:44 10° SSE 04:20:57 67° ENE 04:25:17 10° N
Cosmos 2016 Rocket 4.0 04:14:38 10° SSW 04:20:58 68° W 04:27:21 10° N
Cosmos 2333 Rocket 3.9 04:16:31 10° NNW 04:21:41 33° NE 04:26:46 10° ESE
Cosmos 2082 Rocket 3.0 04:20:42 25° W 04:22:40 32° NW 04:27:41 10° N
COSMO-SKYMED 1 4.1 04:19:30 10° SE 04:23:31 38° ENE 04:27:32 10° N
SL-08 R/B 4.4 04:17:29 10° SSW 04:23:34 75° W 04:29:45 10° N
Okean 1 3.8 04:23:12 30° WSW 04:24:22 37° WNW 04:28:08 10° N
Cosmos 1452 Rocket 4.0 04:24:11 24° WSW 04:26:50 41° WNW 04:31:50 10° N
USA 276 2.7 04:26:13 27° SSW 04:27:29 46° SSE 04:30:25 10° ENE
Meteor 1-18 Rocket 4.1 04:22:29 10° SSW 04:28:10 81° W 04:33:48 10° N
Cosmos 1869 Rocket 3.5 04:24:07 10° NNW 04:28:31 67° W 04:32:52 10° S
CZ-2C R/B 3.3 04:24:39 10° N 04:28:51 28° WNW 04:30:30 23° W
Cosmos 2360 Rocket 3.0 04:23:22 10° NNW 04:28:54 54° ENE 04:34:23 10° SE
USA 307 4.4 04:27:02 15° NW 04:29:29 26° N 04:32:59 10° ENE
Envisat 2.9 04:25:00 10° N 04:30:06 78° WNW 04:35:10 10° SSW
Cosmos 968 Rocket 3.5 04:25:45 10° NNW 04:30:57 81° ENE 04:36:03 10° SSE
Cosmos 489 Rocket 4.4 04:31:15 10° NNW 04:37:28 69° WSW 04:43:37 10° S
USA 306 4.4 04:35:54 13° NW 04:38:52 26° N 04:42:21 10° ENE
H-2A R/B 2.5 04:37:23 10° N 04:41:02 82° WNW 04:44:43 10° SSW
DELTA 2 R/B (1) 4.5 04:37:45 18° WSW 04:41:03 33° SSW 04:46:02 10° SE
Cosmos 2061 Rocket 4.0 04:35:18 10° SSW 04:41:22 57° WNW 04:47:29 10° N
SL-24 R/B - RUBIN 2 4.0 04:38:52 20° WSW 04:41:32 42° NW 04:45:42 10° NNE
PSLV R/B 3.5 04:41:57 10° NNE 04:46:17 88° ESE 04:50:33 10° SSW
ATLAS CENTAUR R/B 3.7 04:44:03 11° WNW 04:46:25 15° NNW 04:49:09 10° N
Cosmos 1733 Rocket 3.5 04:43:06 10° N 04:47:32 68° E 04:51:53 10° SSE
X-37B 2.2 04:49:24 16° SW 04:50:12 18° SSW 04:52:15 10° SSE
CZ-2D R/B 4.1 04:46:48 10° N 04:50:20 31° WNW 04:53:55 10° SW
Meteor 2-4 Rocket 3.7 04:44:57 10° SSW 04:50:37 61° WNW 04:56:10 10° N
NOSS 3-2 (A) 4.1 04:48:58 15° W 04:53:12 38° NW 04:59:18 10° NNE
NOSS 3-2 (C) 3.5 04:48:33 11° SW 04:53:44 58° NW 05:00:07 10° NE
Cosmos 1975 3.4 04:53:19 10° NNW 04:56:56 34° W 05:00:31 10° SSW
SL-08 R/B 4.0 04:53:39 10° SSW 04:57:48 31° W 05:02:04 10° NNW
Cosmos 2322 Rocket 2.2 04:52:44 10° NNW 04:58:22 63° WSW 05:03:55 10° S
Cosmos 2237 4.3 04:54:36 10° NNW 05:00:11 57° WSW 05:05:44 10° S
Cosmos 1242 Rocket 2.7 04:57:35 10° NNW 05:00:51 41° W 05:04:02 10° SSW
CZ-2C R/B 2.7 04:57:24 10° N 05:01:11 64° WNW 05:05:01 10° SSW
Cosmos 2233 Rocket 4.1 04:56:09 10° SSW 05:02:20 55° WNW 05:08:31 10° N
USA 308 4.4 05:01:37 10° NW 05:05:08 27° N 05:08:41 10° ENE
COSMOS 2455 2.8 05:01:52 10° NW 05:07:55 81° WSW 05:13:55 10° SSE
USA 238 DEB 3.8 05:03:16 10° WSW 05:09:35 55° NW 05:16:21 10° NE
USA 238 3.8 05:03:22 10° WSW 05:09:41 55° NW 05:16:27 10° NE
Cosmos 1805 3.2 05:06:10 10° NNW 05:10:02 68° W 05:13:52 10° S
Tsikada Rocket 4.5 05:05:41 10° NNW 05:11:24 38° W 05:17:01 10° SSW
SKYMED 2 3.5 05:07:12 10° S 05:11:31 69° WSW 05:15:53 10° NNW
ATLAS 5 CENTAUR R/B 3.9 05:08:24 10° NNW 05:12:56 30° NE 05:18:17 10° E
FALCON 9 DEB 4.3 05:11:08 10° SSW 05:14:05 37° SE 05:17:05 10° ENE
CZ-4B R/B 3.6 05:10:09 10° NNE 05:15:26 82° WNW 05:20:43 10° SSW
GP-B 4.5 05:13:58 10° SW 05:17:06 19° W 05:20:16 10° NW
Landsat 4 4.3 05:13:47 10° NNE 05:17:26 62° ESE 05:21:04 10° S
Aureole 1 Rocket 4.2 05:14:07 10° N 05:17:35 35° ENE 05:20:31 10° SE
Cosmos 1464 Rocket 4.4 05:11:38 10° S 05:17:47 72° E 05:23:54 10° NNE
Cosmos 1733 3.5 05:17:24 10° NNW 05:20:58 43° W 05:24:31 10° SSW
SL-27 R/B 3.7 05:17:40 10° S 05:21:02 46° ESE 05:24:25 10° NNE
USA 305 4.2 05:21:56 10° NW 05:25:37 31° NNE 05:29:17 10° ENE
